Weather WX

World > North America > United States > Ohio

College Hill Station, Ohio Regional Weather

Lat: 39.16N, Lon: 84.54W
Wx Zone: OHZ077
Feedback

College Hill Station, OH Regional Weather

Expires:201906251100;;048175
ASUS41 KCLE 251012
RWRCLE
OHIO REGIONAL WEATHER ROUNDUP
NATIONAL WEATHER SERVICE WILMINGTON, OH
600 AM EDT TUE JUN 25 2019

NOTE: "FAIR" INDICATES FEW OR NO CLOUDS BELOW 12,000 FEET WITH NO
SIGNIFICANT WEATHER AND/OR OBSTRUCTIONS TO VISIBILITY.


OHZ042-051>053-060>062-070>072-077>081-251100-
  SOUTHWEST OHIO
  
CITY           SKY/WX    TMP DP  RH WIND       PRES   REMARKS
CINC-COVINGTON MOCLDY    64  61  90 W5        29.93R                  
CINC-LUNKEN    FAIR      64  62  93 SW7       29.93R                  
HAMILTON       FAIR      64  64 100 W3        29.93R                  
DAYTON         FAIR      64  61  90 W8        29.91R                  
WRIGHT-PAT AFB FAIR      62  61  97 SW7       29.90R                  
DAYTON GENERAL FAIR      68  63  84 W6        29.91R                  
WILMINGTON     FAIR      64  63  96 W6        29.91R                  
$$


SKY/WX - Weather  TMP - Temperature  DP - Dew Point  RH - Relative Humidity
WIND - Wind Direction/Speed PRES - Barometric Pressure VSB - Visibility
WCI - Wind Chill Index E13G22 Wind - East Wind 13 mph/Gusts of 22 mph